Regional Weather Roundup
Issued by NWS Kansas City/Pleasant Hill, MO

Home | Current Version | Previous Version | Graphics & Text | Print | Product List | Glossary Off
Versions: 1 2 3 4 5 6 7 8 9 10 11 12 13 14 15 16 17 18 19 20 21 22 23 24 25 26 27 28 29 30 31 32 33 34 35 36 37 38 39 40 41 42 43 44 45 46 47 48 49 50

000
ASUS43 KEAX 171310
RWREAX

WEATHER ROUNDUP FOR EASTERN KANSAS AND NORTHWEST MISSOURI
NATIONAL WEATHER SERVICE KANSAS CITY/PLEASANT HILL MO
800 AM CDT TUE OCT 17 2017

KSZ040-057-103>105-MOZ028-029-037-043-171400-
...KANSAS CITY METROPOLITAN AREA...

CITY           SKY/WX    TMP DP  RH WIND       PRES   REMARKS
K.C. INTL      PTCLDY    48  41  76 S12       30.20F
K.C. DOWNTOWN  CLEAR     50  41  71 SW5       30.22S
LEES SUMMIT    PTCLDY    50  41  71 S12       30.23S
OLATHE - IXD   CLEAR     44  40  85 S7        30.23S
OLATHE - OJC   CLEAR     44  39  82 S6        30.23R
LAWRENCE       CLEAR     43  40  89 E7        30.22R

$$

MOZ001>008-011>017-020>025-030>033-038>040-044>046-053-054-171400-
...NORTHERN AND CENTRAL MISSOURI...

CITY           SKY/WX    TMP DP  RH WIND       PRES   REMARKS
ST. JOSEPH     CLEAR     44  42  93 S6        30.19S
MOSBY          SUNNY     43  41  93 CALM      30.22S
WARRENSBURG    MOCLDY    45  41  87 S6        30.25S
WHITEMAN AFB   MOCLDY    46  41  85 S7        30.22R
CLINTON        PTCLDY    45  41  87 S5        30.27R
SEDALIA        PTCLDY    44  42  93 S7        30.27S
WARSAW         NOT AVBL
CHILLICOTHE      N/A     47  41  80 S6        30.23S
KIRKSVILLE     PTCLDY    48  43  82 S8        30.23S

$$

MOZ041-047>049-056>058-063>065-088>090-097-171400-
...EASTERN AND SOUTHERN MISSOURI...

CITY           SKY/WX    TMP DP  RH WIND       PRES   REMARKS
ST. LOUIS INTL MOCLDY    51  39  63 S9        30.32S
SPIRIT OF STL  MOCLDY    43  41  93 CALM      30.32S
COLUMBIA       CLOUDY    43  40  89 S7        30.28S
JEFFERSON CITY PTCLDY    42  38  85 E3        30.30R
ROLLA          PTCLDY    48  39  71 S14       30.31S
OSAGE BEACH    CLEAR     44  39  82 S7        30.31R
SPRINGFIELD    PTCLDY    44  40  85 S3        30.30R
BRANSON        MOCLDY    45  39  81 CALM      30.33R
JOPLIN         PTCLDY    48  43  82 S7        30.28R
WEST PLAINS    CLOUDY    42  38  85 CALM      30.35R

$$

IAZ060-094-KSZ022-034>040-054-083-096-NEZ052-066-093-171400-
...KANSAS...SOUTHEAST NEBRASKA AND IOWA...

CITY           SKY/WX    TMP DP  RH WIND       PRES   REMARKS
TOPEKA         CLEAR     48  41  76 SE3       30.19S
MANHATTAN      CLEAR     48  40  73 SW5       30.15S
EMPORIA        CLEAR     46  38  73 S10       30.19F
CHANUTE        PTCLDY    47  41  80 S9        30.24S
WICHITA        PTCLDY    48  42  80 S13       30.18S
OMAHA          PTCLDY    47  40  76 S9        30.11S
LINCOLN        CLEAR     44  39  82 S7        30.11F
FALLS CITY     CLEAR     48  40  73 S8        30.14S
LAMONI         CLEAR     47  40  76 S10       30.17S
DES MOINES     PTCLDY    51  40  65 S10       30.12F

$$




USA.gov is the U.S. government's official web portal to all federal, state and local government web resources and services.